This demonstration page uses our WeatherBlox Daily Observations layout. Learn more.

Left ArrowRight Arrow

Hourly Observations for September 3, 2020

Temp ( °F °C ) Dew Point ( °F °C ) Humidity (%) Winds ( mph kmh ) Pressure ( in mb ) Visibility ( mi km ) Precip ( " mm )
12:59 am 00:59 Mostly Cloudy 80 26.7 76 24.4 87 87 SSW 5 7 29.89 1012 8 13 0.00 0.00
1:59 am 01:59 Mostly Cloudy with Mist and Fog 82 27.8 78 25.6 88 88 SW 7 11 29.88 1012 6 10 0.00 0.00
2:59 am 02:59 Mostly Cloudy with Mist and Fog 82 27.8 78 25.6 88 88 W 3 6 29.88 1012 6 10 0.00 0.00
3:59 am 03:59 Mostly Cloudy with Mist and Fog 81 27.2 77 25 88 88 W 6 9 29.88 1012 6 10 0.00 0.00
4:59 am 04:59 Partly Cloudy with Mist and Fog 81 27.2 77 25 88 88 W 5 7 29.88 1012 6 10 0.00 0.00
5:59 am 05:59 Partly Cloudy with Mist and Fog 80 26.7 77 25 90 90 W 5 7 29.89 1012 6 10 0.00 0.00
6:59 am 06:59 Mostly Sunny 79 26.1 74 23.3 85 85 WSW 3 6 29.90 1013 7 11 0.00 0.00
7:59 am 07:59 Mostly Sunny 82 27.8 75 23.9 79 79 SW 5 7 29.91 1013 7 11 0.00 0.00
8:59 am 08:59 Mostly Sunny 84 28.9 76 24.4 77 77 SW 6 9 29.90 1013 7 11 0.00 0.00
9:59 am 09:59 Hazy 86 30 77 25 75 75 SW 6 9 29.90 1013 6 10 0.00 0.00
10:59 am 10:59 Partly Cloudy 88 31.1 76 24.4 68 68 SW 6 9 29.89 1012 7 11 0.00 0.00
11:59 am 11:59 Partly Cloudy 91 32.8 76 24.4 61 61 VRB 6 9 29.88 1012 7 11 0.00 0.00
12:09 pm 12:09 Partly Cloudy 91 32.8 76 24.4 61 61 VRB 3 6 29.88 1012 7 11 0.00 0.00
12:59 pm 12:59 Partly Cloudy 92 33.3 76 24.4 60 60 VRB 3 6 29.86 1011 8 13 0.00 0.00
1:59 pm 13:59 Mostly Cloudy 93 33.9 76 24.4 58 58 WNW 10 17 29.86 1011 8 13 0.00 0.00
2:59 pm 14:59 Mostly Cloudy 91 32.8 77 25 64 64 WSW 6 9 29.84 1010 7 11 0.00 0.00
3:59 pm 15:59 Mostly Cloudy 93 33.9 77 25 60 60 SSW 8 13 29.82 1010 7 11 0.00 0.00
4:59 pm 16:59 Mostly Cloudy 94 34.4 73 22.8 51 51 SSW 12 19 29.80 1009 9 14 0.00 0.00
5:59 pm 17:59 Mostly Cloudy 92 33.3 73 22.8 54 54 SSW 9 15 29.78 1009 9 14 0.00 0.00
6:59 pm 18:59 Partly Cloudy 90 32.2 73 22.8 58 58 SSW 7 11 29.80 1009 9 14 0.00 0.00
7:59 pm 19:59 Partly Cloudy 88 31.1 74 23.3 63 63 SSW 8 13 29.81 1010 10 16 0.00 0.00
8:59 pm 20:59 Partly Cloudy 87 30.6 73 22.8 63 63 SSW 9 15 29.82 1010 10 16 0.00 0.00
9:59 pm 21:59 Partly Cloudy 87 30.6 71 21.7 59 59 SSW 9 15 29.83 1010 10 16 0.00 0.00
10:59 pm 22:59 Partly Cloudy 86 30 71 21.7 61 61 SW 9 15 29.84 1010 10 16 0.00 0.00
11:59 pm 23:59 Partly Cloudy 85 29.4 71 21.7 63 63 SW 8 13 29.83 1010 10 16 0.00 0.00

Powered by AerisWeather